When you browse on this site, cookies collect data to enhance your experience and personalize the content and advertising you see.
Visit our Privacy Policy to learn more. By continuing to use the site, you agree to this use of cookies and data.
  • en Suisse
  • Liste des pays
  • À 7 jours
  • Température de l'eau
  • Carte satellitaire
  • Carte météo
  • Widgets météo
  • user-avatar
    Se connecter

    Météo par heure à Cabimas

    Ce jour, 17 Juillet, Mercredi

    Heure Température Précipitation Vent Pression Humidité
    00:00 +27°C° 0.4 mm 3 m/s 759 mmHg 84%
    01:00 +27°C° 0.4 mm 3 m/s 758 mmHg 84%
    02:00 +26°C° 0.2 mm 3 m/s 758 mmHg 84%
    03:00 +26°C° 0.2 mm 3 m/s 758 mmHg 84%
    04:00 +26°C° 0.2 mm 2 m/s 758 mmHg 84%
    05:00 +26°C° 0.1 mm 2 m/s 758 mmHg 82%
    06:00 +27°C° 0.1 mm 2 m/s 758 mmHg 81%
    07:00 +28°C° 0.1 mm 1 m/s 759 mmHg 79%
    08:00 +29°C° 0.1 mm 2 m/s 759 mmHg 73%
    09:00 +31°C° 0.1 mm 3 m/s 758 mmHg 66%
    10:00 +34°C° 0.1 mm 3 m/s 758 mmHg 60%
    11:00 +34°C° 0.3 mm 3 m/s 758 mmHg 59%
    12:00 +35°C° 0.3 mm 2 m/s 757 mmHg 58%
    13:00 +36°C° 0.3 mm 2 m/s 757 mmHg 57%
    14:00 +35°C° 0.1 mm 2 m/s 756 mmHg 57%
    15:00 +35°C° 0.1 mm 3 m/s 756 mmHg 57%
    16:00 +34°C° 0.1 mm 3 m/s 756 mmHg 57%
    17:00 +33°C° 0 mm 4 m/s 756 mmHg 63%
    18:00 +30°C° 0 mm 5 m/s 757 mmHg 69%
    19:00 +29°C° 0 mm 5 m/s 758 mmHg 74%
    20:00 +28°C° 0 mm 5 m/s 758 mmHg 77%
    21:00 +28°C° 0 mm 4 m/s 758 mmHg 79%
    22:00 +28°C° 0 mm 3 m/s 759 mmHg 81%
    23:00 +28°C° 0 mm 3 m/s 758 mmHg 82%

    Demain, 18 Juillet, Jeudi

    Heure Température Précipitation Vent Pression Humidité
    00:00 +27°C° 0 mm 3 m/s 758 mmHg 83%
    01:00 +27°C° 0 mm 2 m/s 758 mmHg 84%
    02:00 +27°C° 0.2 mm 2 m/s 758 mmHg 84%
    03:00 +26°C° 0.2 mm 2 m/s 757 mmHg 85%
    04:00 +26°C° 0.2 mm 2 m/s 757 mmHg 85%
    05:00 +27°C° 0 mm 2 m/s 758 mmHg 83%
    06:00 +27°C° 0 mm 2 m/s 758 mmHg 81%
    07:00 +28°C° 0 mm 2 m/s 758 mmHg 79%
    08:00 +30°C° 0.3 mm 3 m/s 758 mmHg 73%
    09:00 +33°C° 0.3 mm 3 m/s 758 mmHg 67%
    10:00 +34°C° 0.3 mm 3 m/s 758 mmHg 61%
    11:00 +35°C° 0.1 mm 3 m/s 757 mmHg 59%
    12:00 +36°C° 0.1 mm 3 m/s 757 mmHg 56%
    13:00 +37°C° 0.1 mm 3 m/s 756 mmHg 53%
    14:00 +36°C° 0 mm 3 m/s 756 mmHg 55%
    15:00 +36°C° 0 mm 3 m/s 755 mmHg 57%
    16:00 +35°C° 0 mm 3 m/s 755 mmHg 59%
    17:00 +34°C° 0.1 mm 3 m/s 755 mmHg 64%
    18:00 +31°C° 0.1 mm 3 m/s 756 mmHg 69%
    19:00 +30°C° 0.1 mm 4 m/s 756 mmHg 73%
    20:00 +29°C° 0 mm 4 m/s 757 mmHg 75%
    21:00 +29°C° 0 mm 3 m/s 757 mmHg 77%
    22:00 +29°C° 0 mm 3 m/s 758 mmHg 78%
    23:00 +29°C° 0 mm 3 m/s 757 mmHg 80%

    Après-demain, 19 Juillet, Vendredi

    Heure Température Précipitation Vent Pression Humidité
    00:00 +29°C° 0 mm 3 m/s 757 mmHg 81%
    01:00 +28°C° 0 mm 3 m/s 757 mmHg 82%
    02:00 +28°C° 0 mm 2 m/s 757 mmHg 84%
    03:00 +28°C° 0 mm 2 m/s 756 mmHg 85%
    04:00 +27°C° 0 mm 2 m/s 756 mmHg 86%
    05:00 +28°C° 0 mm 2 m/s 757 mmHg 82%
    06:00 +28°C° 0 mm 2 m/s 757 mmHg 78%
    07:00 +29°C° 0 mm 2 m/s 757 mmHg 75%
    08:00 +31°C° 0 mm 2 m/s 757 mmHg 69%
    09:00 +33°C° 0 mm 1 m/s 757 mmHg 63%
    10:00 +35°C° 0 mm 1 m/s 757 mmHg 58%
    11:00 +36°C° 0 mm 1 m/s 756 mmHg 56%
    12:00 +36°C° 0 mm 1 m/s 756 mmHg 54%
    13:00 +38°C° 0 mm 2 m/s 755 mmHg 52%
    14:00 +37°C° 0 mm 2 m/s 755 mmHg 53%
    15:00 +36°C° 0 mm 3 m/s 754 mmHg 55%
    16:00 +36°C° 0 mm 4 m/s 754 mmHg 56%
    17:00 +34°C° 0 mm 5 m/s 755 mmHg 62%
    18:00 +33°C° 0 mm 5 m/s 755 mmHg 67%
    19:00 +30°C° 0 mm 5 m/s 756 mmHg 72%
    20:00 +30°C° 0 mm 4 m/s 756 mmHg 73%
    21:00 +30°C° 0 mm 4 m/s 757 mmHg 74%
    22:00 +30°C° 0 mm 3 m/s 757 mmHg 76%
    23:00 +29°C° 0 mm 3 m/s 757 mmHg 76%

    20 Juillet, Samedi

    Heure Température Précipitation Vent Pression Humidité
    00:00 +29°C° 0 mm 3 m/s 757 mmHg 77%
    01:00 +28°C° 0 mm 3 m/s 756 mmHg 78%
    02:00 +28°C° 0.1 mm 3 m/s 756 mmHg 76%
    03:00 +28°C° 0.1 mm 2 m/s 756 mmHg 74%
    04:00 +27°C° 0.1 mm 2 m/s 756 mmHg 72%
    05:00 +28°C° 0.1 mm 2 m/s 756 mmHg 71%
    06:00 +28°C° 0.1 mm 2 m/s 756 mmHg 70%
    07:00 +29°C° 0.1 mm 2 m/s 757 mmHg 69%
    08:00 +31°C° 0 mm 2 m/s 757 mmHg 63%
    09:00 +34°C° 0 mm 2 m/s 757 mmHg 58%
    10:00 +36°C° 0 mm 2 m/s 757 mmHg 53%
    11:00 +37°C° 0 mm 2 m/s 756 mmHg 51%
    12:00 +38°C° 0 mm 2 m/s 756 mmHg 48%
    13:00 +39°C° 0 mm 2 m/s 755 mmHg 46%
    14:00 +38°C° 0 mm 3 m/s 754 mmHg 48%
    15:00 +37°C° 0 mm 4 m/s 754 mmHg 51%
    16:00 +36°C° 0 mm 5 m/s 753 mmHg 54%
    17:00 +34°C° 0 mm 5 m/s 754 mmHg 60%
    18:00 +33°C° 0 mm 5 m/s 754 mmHg 66%
    19:00 +30°C° 0 mm 5 m/s 755 mmHg 72%
    20:00 +30°C° 0 mm 5 m/s 755 mmHg 73%
    21:00 +30°C° 0 mm 4 m/s 756 mmHg 74%
    22:00 +30°C° 0 mm 3 m/s 757 mmHg 75%
    23:00 +29°C° 0 mm 3 m/s 756 mmHg 76%

    21 Juillet, Dimanche

    Heure Température Précipitation Vent Pression Humidité
    00:00 +29°C° 0 mm 3 m/s 756 mmHg 76%
    01:00 +28°C° 0 mm 3 m/s 756 mmHg 76%
    02:00 +28°C° 0.1 mm 3 m/s 756 mmHg 75%
    03:00 +27°C° 0.1 mm 3 m/s 756 mmHg 74%
    04:00 +27°C° 0.1 mm 3 m/s 756 mmHg 73%
    05:00 +27°C° 0.2 mm 3 m/s 756 mmHg 72%
    06:00 +28°C° 0.2 mm 2 m/s 756 mmHg 70%
    07:00 +29°C° 0.2 mm 2 m/s 757 mmHg 69%
    08:00 +31°C° 0 mm 2 m/s 757 mmHg 62%
    09:00 +34°C° 0 mm 2 m/s 757 mmHg 56%
    10:00 +36°C° 0 mm 2 m/s 757 mmHg 50%
    11:00 +37°C° 0 mm 2 m/s 756 mmHg 47%
    12:00 +38°C° 0 mm 2 m/s 756 mmHg 44%
    13:00 +39°C° 0 mm 2 m/s 755 mmHg 40%
    14:00 +38°C° 0 mm 3 m/s 755 mmHg 44%
    15:00 +37°C° 0 mm 4 m/s 754 mmHg 47%
    16:00 +36°C° 0 mm 5 m/s 754 mmHg 50%
    17:00 +35°C° 0 mm 6 m/s 754 mmHg 54%
    18:00 +33°C° 0 mm 6 m/s 755 mmHg 59%
    19:00 +32°C° 0 mm 6 m/s 755 mmHg 64%
    20:00 +30°C° 0 mm 5 m/s 756 mmHg 67%
    21:00 +30°C° 0 mm 5 m/s 757 mmHg 70%
    22:00 +29°C° 0 mm 4 m/s 757 mmHg 73%
    23:00 +29°C° 0 mm 3 m/s 757 mmHg 72%

    22 Juillet, Lundi

    Heure Température Précipitation Vent Pression Humidité
    00:00 +28°C° 0 mm 3 m/s 757 mmHg 72%
    01:00 +28°C° 0 mm 3 m/s 756 mmHg 71%
    02:00 +27°C° 0 mm 3 m/s 756 mmHg 71%
    03:00 +27°C° 0 mm 3 m/s 756 mmHg 70%
    04:00 +27°C° 0 mm 3 m/s 756 mmHg 70%
    05:00 +27°C° 0.2 mm 3 m/s 757 mmHg 69%
    06:00 +28°C° 0.2 mm 3 m/s 757 mmHg 68%
    07:00 +28°C° 0.2 mm 3 m/s 757 mmHg 67%
    08:00 +30°C° 0.2 mm 3 m/s 757 mmHg 63%
    09:00 +33°C° 0.2 mm 3 m/s 757 mmHg 60%
    10:00 +35°C° 0.2 mm 3 m/s 757 mmHg 56%
    11:00 +36°C° 0.1 mm 3 m/s 757 mmHg 54%
    12:00 +36°C° 0.1 mm 3 m/s 756 mmHg 51%
    13:00 +37°C° 0.1 mm 2 m/s 755 mmHg 49%
    14:00 +37°C° 0 mm 2 m/s 755 mmHg 51%
    15:00 +36°C° 0 mm 3 m/s 754 mmHg 53%
    16:00 +35°C° 0 mm 3 m/s 754 mmHg 55%
    17:00 +34°C° 0 mm 4 m/s 755 mmHg 61%
    18:00 +32°C° 0 mm 5 m/s 755 mmHg 68%
    19:00 +30°C° 0 mm 6 m/s 756 mmHg 74%
    20:00 +29°C° 0 mm 5 m/s 757 mmHg 76%
    21:00 +29°C° 0 mm 5 m/s 757 mmHg 77%
    22:00 +28°C° 0 mm 5 m/s 758 mmHg 79%
    23:00 +28°C° 0 mm 4 m/s 757 mmHg 80%
    Voir plus